[[{"header":{"parameterUnit":"m.s-1","parameterCategory":1,"la1":30.2991,"la2":30.254,"lo1":-89.0895,"lo2":-89.0444,"dy":0.0017,"dx":0.0017,"nx":28,"ny":28,"refTime":"2025-08-07T09:00:00:Z","depth":0,"parameterNumber":2,"parameterNumberName":"U-component_of_WINDS"},"data":[0,0,0,0,0,0,0,0,0,0,0,0,0,0,0,0,0,0,0,0,0,0,0,0,0,0,0,0,0,0,0,0,0,0,0,0,0,0,0,0,0,0,0,0,0,0,0,0,0,0,0,0,0,0,0,0,0,0,-1.2547,-1.2547,0,-1.2511,-1.251,-1.251,-1.2433,-1.2431,-1.243,-1.2428,-1.2394,-1.2395,-1.2395,0,0,0,0,0,0,0,0,0,0,0,0,0,-1.2554,-1.2555,-1.2548,-1.2547,-1.2547,-1.2511,-1.251,-1.251,-1.2433,-1.2431,-1.2429,-1.2428,-1.2394,-1.2394,-1.2395,0,0,0,0,0,0,0,0,0,0,0,0,0,-1.2538,-1.2555,-1.2548,-1.2504,-1.25,-1.2511,-1.251,-1.251,-1.2434,-1.2431,-1.2429,-1.2427,-1.2394,-1.2394,-1.2395,-1.2447,0,0,-1.2398,-1.2398,0,0,0,0,0,0,0,0,-1.2539,-1.2538,-1.2511,-1.2507,-1.2502,-1.2474,-1.25,-1.2489,-1.2434,-1.2459,-1.2428,-1.2426,-1.2423,-1.2421,-1.2419,-1.2445,-1.2444,-1.2398,-1.2398,-1.2399,-1.2399,0,0,0,0,0,0,0,-1.254,-1.2539,-1.2533,-1.2511,-1.2505,-1.2487,-1.2482,-1.2497,-1.2454,-1.2457,-1.2451,-1.2447,-1.242,-1.2419,-1.2418,-1.2443,-1.2398,-1.2398,-1.2399,-1.2399,-1.2509,-1.2512,0,0,0,0,0,0,-1.2547,-1.254,-1.2534,-1.2532,-1.2515,-1.2489,-1.2483,-1.2485,-1.2454,-1.2447,-1.2449,-1.2444,-1.2418,-1.2417,-1.2416,-1.2475,-1.2399,-1.2399,-1.24,-1.2507,-1.251,-1.2512,0,0,0,0,0,0,-1.2548,-1.2547,-1.2536,-1.2535,-1.2532,-1.2491,-1.2494,-1.2486,-1.2485,-1.2448,-1.2441,-1.2456,-1.2417,-1.2415,-1.2439,-1.2472,-1.24,-1.24,-1.2504,-1.2508,-1.2511,-1.2592,0,0,0,0,0,0,-1.2548,-1.2548,-1.2567,-1.2535,-1.2532,-1.2559,-1.2496,-1.2487,-1.2486,-1.2478,-1.2453,-1.2446,-1.2415,-1.2439,-1.244,-1.2472,-1.2401,-1.2501,-1.2506,-1.251,-1.2586,-1.2598,-1.2608,0,0,0,0,0,-1.2549,-1.2592,-1.2568,-1.2568,-1.2554,-1.2561,-1.2559,-1.2521,-1.2489,-1.2507,-1.2484,-1.2447,-1.2468,-1.2442,-1.2443,-1.2476,-1.2499,-1.2504,-1.251,-1.2581,-1.2596,-1.2608,0,0,0,0,0,0,-1.2629,-1.2587,-1.256,-1.2594,-1.2581,-1.2548,-1.257,-1.2537,-1.2535,-1.2528,-1.2482,-1.2477,-1.2507,-1.2493,-1.2465,-1.2524,-1.2478,-1.2484,-1.2532,-1.2545,-1.2556,-1.2559,-1.2402,0,0,0,0,0,-1.2651,-1.2658,-1.2621,-1.2655,-1.265,-1.2611,-1.2613,-1.2584,-1.257,-1.2565,-1.2543,-1.2532,-1.2535,-1.2539,-1.2541,-1.2583,-1.2577,-1.2606,-1.2617,-1.2626,-1.2633,-1.2654,-1.2667,-1.2531,-1.253,-1.253,0,0,-1.2696,-1.2673,-1.2681,-1.2671,-1.2657,-1.2668,-1.2608,-1.2621,-1.2628,-1.2567,-1.2588,-1.2572,-1.2556,-1.259,-1.2604,-1.258,-1.2669,-1.2633,-1.2641,-1.2642,-1.2661,-1.2674,-1.2686,-1.2534,-1.2534,-1.2533,0,0,-1.2782,-1.2766,-1.2792,-1.278,-1.276,-1.2734,-1.2741,-1.2712,-1.2698,-1.2719,-1.2673,-1.2682,-1.2689,-1.268,-1.2676,-1.2759,-1.2724,-1.276,-1.2818,-1.2839,-1.285,-1.286,-1.289,-1.2901,-1.2766,-1.2767,-1.2767,0,-1.2841,-1.2853,-1.281,-1.2826,-1.2823,-1.2767,-1.2793,-1.2784,-1.2767,-1.2766,-1.2739,-1.2747,-1.2732,-1.2763,-1.2783,-1.2782,-1.2788,-1.2764,-1.2852,-1.2861,-1.2869,-1.2897,-1.2908,-1.2771,-1.2771,-1.277,-1.277,0,-1.2927,-1.2936,-1.296,-1.2943,-1.2942,-1.2964,-1.2924,-1.2929,-1.29,-1.2878,-1.2899,-1.2879,-1.2876,-1.2881,-1.2854,-1.2908,-1.2894,-1.286,-1.2813,-1.2887,-1.2913,-1.2923,-1.2778,-1.2776,-1.2775,-1.2773,0,0,-1.3064,-1.3022,-1.3032,-1.3024,-1.2997,-1.3004,-1.3023,-1.3019,-1.3024,-1.3014,-1.3029,-1.3036,-1.3005,-1.3001,-1.2972,-1.2991,-1.3058,-1.2954,-1.2953,-1.2975,-1.3117,-1.3143,-1.3156,-1.3035,-1.3036,-1.3038,-1.3118,0,-1.3146,-1.3175,-1.3136,-1.3174,-1.3182,-1.3129,-1.3145,-1.3131,-1.311,-1.3115,-1.3092,-1.3098,-1.3056,-1.3053,-1.3069,-1.3046,-1.3086,-1.304,-1.3049,-1.305,-1.3056,-1.3169,-1.3197,-1.3274,-1.3128,-1.313,-1.3131,0,-1.3245,-1.3238,-1.3277,-1.3248,-1.325,-1.3265,-1.3258,-1.3263,-1.3246,-1.323,-1.3225,-1.319,-1.3207,-1.316,-1.3184,-1.3154,-1.3155,-1.3145,-1.3147,-1.3147,-1.3096,-1.3173,-1.3297,-1.3309,-1.3146,-1.3145,-1.3144,0,-1.3343,-1.3343,-1.3366,-1.336,-1.3327,-1.3339,-1.3326,-1.3307,-1.3307,-1.3301,-1.33,-1.3297,-1.3295,-1.3293,-1.3259,-1.3228,-1.3287,-1.3238,-1.3275,-1.3276,-1.329,-1.329,-1.3417,-1.329,-1.329,-1.329,-1.329,0,-1.3438,-1.3464,-1.3409,-1.3424,-1.3451,-1.3406,-1.3435,-1.3417,-1.34,-1.341,-1.3364,-1.3375,-1.3328,-1.3334,-1.3307,-1.3331,-1.3331,-1.3319,-1.3311,-1.3323,-1.3325,-1.3324,-1.3318,-1.3293,-1.3292,-1.3292,-1.3291,0,-1.3552,-1.3516,-1.3538,-1.3504,-1.3496,-1.3518,-1.3489,-1.3502,-1.3477,-1.3491,-1.3491,-1.3454,-1.3458,-1.3423,-1.3422,-1.3404,-1.3441,-1.3424,-1.3447,-1.3442,-1.3481,-1.3478,-1.3613,-1.3629,-1.3491,-1.3493,-1.3494,0,-1.3616,-1.3634,-1.3602,-1.3605,-1.3594,-1.3599,-1.3598,-1.3555,-1.3556,-1.3539,-1.3553,-1.3554,-1.3552,-1.3563,-1.3536,-1.3535,-1.3518,-1.3565,-1.3517,-1.3529,-1.3519,-1.3519,-1.3521,-1.3576,-1.3577,-1.3579,-1.358,0,-1.3733,-1.3714,-1.3714,-1.3708,-1.3708,-1.3701,-1.3691,-1.3696,-1.3649,-1.3653,-1.3657,-1.3655,-1.3653,-1.3655,-1.3648,-1.3636,-1.3601,-1.3595,-1.3603,-1.3616,-1.3629,-1.3623,-1.3475,-1.3592,-1.3591,-1.359,-1.3589,-1.3589,-1.3825,-1.3838,-1.3817,-1.3819,-1.3806,-1.3798,-1.3808,-1.3784,-1.3786,-1.378,-1.3755,-1.3763,-1.3746,-1.3733,-1.3724,-1.373,-1.3708,-1.372,-1.3723,-1.3727,-1.3735,-1.3627,-1.3729,-1.3729,-1.3728,-1.3728,-1.3727,0,-1.394,-1.3924,-1.3925,-1.3912,-1.3913,-1.3878,-1.3865,-1.3869,-1.3877,-1.3863,-1.3862,-1.3866,-1.3868,-1.384,-1.3838,-1.3849,-1.3833,-1.385,-1.3849,-1.3847,-1.3755,-1.3748,-1.3863,-1.3863,-1.3863,-1.3863,-1.3863,-1.3863,-1.4,-1.4022,-1.4,-1.4015,-1.3999,-1.4006,-1.4002,-1.3994,-1.3983,-1.3989,-1.399,-1.3971,-1.3952,-1.3948,-1.3948,-1.394,-1.3942,-1.3965,-1.3952,-1.3867,-1.3853,-1.3841,-1.3834,-1.3966,-1.3966,-1.4043,-1.4044,-1.4045]},{"header":{"parameterUnit":"m.s-1","parameterCategory":1,"la1":30.2991,"la2":30.254,"lo1":-89.0895,"lo2":-89.0444,"dy":0.0017,"dx":0.0017,"nx":28,"ny":28,"refTime":"2025-08-07T09:00:00:Z","depth":0,"parameterNumber":3,"parameterNumberName":"V-component_of_WINDS"},"data":[0,0,0,0,0,0,0,0,0,0,0,0,0,0,0,0,0,0,0,0,0,0,0,0,0,0,0,0,0,0,0,0,0,0,0,0,0,0,0,0,0,0,0,0,0,0,0,0,0,0,0,0,0,0,0,0,0,0,-0.9287,-0.9287,0,-0.9333,-0.9333,-0.9334,-0.9368,-0.9368,-0.9368,-0.9369,-0.9412,-0.9413,-0.9414,0,0,0,0,0,0,0,0,0,0,0,0,0,-0.9223,-0.9224,-0.9286,-0.9287,-0.9288,-0.9333,-0.9333,-0.9334,-0.9368,-0.9368,-0.9368,-0.9369,-0.9412,-0.9413,-0.9414,0,0,0,0,0,0,0,0,0,0,0,0,0,-0.9258,-0.9225,-0.9286,-0.931,-0.9313,-0.9333,-0.9334,-0.9334,-0.9368,-0.9368,-0.9368,-0.9369,-0.9412,-0.9413,-0.9414,-0.9414,0,0,-0.9418,-0.9419,0,0,0,0,0,0,0,0,-0.9256,-0.926,-0.9306,-0.9308,-0.9311,-0.9345,-0.9327,-0.9361,-0.9367,-0.9346,-0.9369,-0.9369,-0.9389,-0.9392,-0.94,-0.9416,-0.9417,-0.9418,-0.9419,-0.942,-0.942,0,0,0,0,0,0,0,-0.9254,-0.9259,-0.9305,-0.9306,-0.931,-0.9317,-0.9322,-0.9334,-0.9365,-0.9348,-0.9351,-0.9356,-0.9391,-0.9399,-0.9401,-0.9418,-0.9418,-0.9419,-0.942,-0.9421,-0.9435,-0.9435,0,0,0,0,0,0,-0.9248,-0.9256,-0.9303,-0.9306,-0.9284,-0.9318,-0.9324,-0.9334,-0.9365,-0.937,-0.9356,-0.9358,-0.9396,-0.94,-0.9403,-0.9404,-0.942,-0.9421,-0.9422,-0.9436,-0.9435,-0.9435,0,0,0,0,0,0,-0.9247,-0.9252,-0.9301,-0.9282,-0.9289,-0.9318,-0.9329,-0.9334,-0.9342,-0.937,-0.9376,-0.9358,-0.9397,-0.9401,-0.9411,-0.9406,-0.9422,-0.9423,-0.9436,-0.9435,-0.9435,-0.9406,0,0,0,0,0,0,-0.9245,-0.9251,-0.9252,-0.9282,-0.929,-0.9309,-0.9329,-0.9335,-0.9345,-0.9348,-0.9374,-0.9379,-0.9397,-0.9409,-0.9412,-0.9408,-0.9424,-0.9437,-0.9436,-0.9435,-0.9408,-0.9405,-0.9402,0,0,0,0,0,-0.9242,-0.9241,-0.9252,-0.9257,-0.9292,-0.9309,-0.9314,-0.9336,-0.9345,-0.9345,-0.9363,-0.9378,-0.9406,-0.9409,-0.9414,-0.941,-0.9437,-0.9436,-0.9435,-0.9409,-0.9405,-0.9402,0,0,0,0,0,0,-0.9209,-0.9246,-0.9258,-0.9267,-0.9285,-0.9315,-0.9316,-0.9331,-0.9346,-0.9348,-0.9374,-0.938,-0.9386,-0.9399,-0.9402,-0.9411,-0.9423,-0.9423,-0.9402,-0.9399,-0.9396,-0.9393,-0.9425,0,0,0,0,0,-0.9203,-0.9215,-0.9246,-0.9251,-0.926,-0.9286,-0.9295,-0.9311,-0.933,-0.9337,-0.9356,-0.9372,-0.9385,-0.9393,-0.9406,-0.941,-0.9416,-0.941,-0.9407,-0.9404,-0.9404,-0.9406,-0.9404,-0.9432,-0.9432,-0.9432,0,0,-0.919,-0.9212,-0.9217,-0.9245,-0.9261,-0.9272,-0.9292,-0.9303,-0.9311,-0.9338,-0.9349,-0.9363,-0.9384,-0.9391,-0.9394,-0.9401,-0.9398,-0.9403,-0.9401,-0.9402,-0.9405,-0.9403,-0.94,-0.9431,-0.9431,-0.9431,0,0,-0.9172,-0.919,-0.9196,-0.9212,-0.9236,-0.9254,-0.9255,-0.9283,-0.9294,-0.9306,-0.9326,-0.9335,-0.9357,-0.9371,-0.938,-0.9368,-0.9382,-0.9372,-0.9357,-0.9359,-0.9357,-0.9355,-0.935,-0.9348,-0.9371,-0.9371,-0.9371,0,-0.9152,-0.9171,-0.9197,-0.9207,-0.9218,-0.9244,-0.925,-0.9263,-0.929,-0.9296,-0.9304,-0.9332,-0.9348,-0.9358,-0.9355,-0.9362,-0.9364,-0.9368,-0.9355,-0.9354,-0.9352,-0.9348,-0.9346,-0.9369,-0.937,-0.937,-0.937,0,-0.9146,-0.9158,-0.916,-0.9187,-0.9198,-0.9206,-0.9231,-0.924,-0.9254,-0.9271,-0.9282,-0.9302,-0.932,-0.9323,-0.9337,-0.9336,-0.9339,-0.9351,-0.9364,-0.9348,-0.9344,-0.9343,-0.9367,-0.9368,-0.9368,-0.9369,0,0,-0.9107,-0.9149,-0.9149,-0.9161,-0.919,-0.92,-0.9208,-0.9227,-0.9233,-0.9251,-0.9258,-0.9276,-0.9287,-0.9298,-0.9314,-0.9316,-0.9304,-0.9327,-0.9328,-0.9322,-0.9303,-0.9294,-0.9291,-0.9314,-0.9314,-0.9314,-0.9301,0,-0.9093,-0.9112,-0.9135,-0.9145,-0.9156,-0.9182,-0.9189,-0.9207,-0.9223,-0.9234,-0.9251,-0.9263,-0.9277,-0.9284,-0.9287,-0.9305,-0.9301,-0.9306,-0.932,-0.932,-0.9314,-0.929,-0.928,-0.9267,-0.93,-0.93,-0.9299,0,-0.908,-0.9097,-0.9108,-0.9137,-0.9142,-0.9149,-0.9168,-0.9179,-0.9199,-0.921,-0.9223,-0.924,-0.925,-0.9262,-0.9274,-0.9277,-0.9284,-0.9294,-0.9294,-0.9295,-0.9308,-0.929,-0.9263,-0.9261,-0.9298,-0.9298,-0.9298,0,-0.905,-0.9076,-0.9087,-0.9096,-0.913,-0.9133,-0.9147,-0.9168,-0.9178,-0.9194,-0.92,-0.9217,-0.9226,-0.9238,-0.9259,-0.9266,-0.9269,-0.9283,-0.9277,-0.9277,-0.9276,-0.9276,-0.925,-0.9282,-0.9282,-0.9282,-0.9282,0,-0.9031,-0.9037,-0.9074,-0.908,-0.9087,-0.9113,-0.9119,-0.9135,-0.9153,-0.9162,-0.9185,-0.9192,-0.922,-0.9231,-0.9247,-0.9255,-0.9258,-0.9267,-0.9271,-0.9265,-0.9264,-0.9269,-0.927,-0.9281,-0.9281,-0.9281,-0.9281,0,-0.8999,-0.9024,-0.9037,-0.9068,-0.9075,-0.9079,-0.9105,-0.9111,-0.9129,-0.914,-0.9144,-0.9171,-0.9184,-0.9207,-0.9226,-0.9237,-0.9242,-0.9249,-0.9235,-0.9237,-0.9231,-0.9231,-0.9207,-0.9205,-0.9238,-0.9238,-0.9238,0,-0.8985,-0.8991,-0.9023,-0.9031,-0.9044,-0.9057,-0.9068,-0.9094,-0.9103,-0.9127,-0.9131,-0.9146,-0.916,-0.918,-0.9201,-0.9216,-0.9224,-0.9214,-0.9226,-0.9219,-0.9223,-0.9222,-0.9222,-0.9211,-0.9211,-0.921,-0.921,0,-0.8958,-0.8971,-0.8986,-0.9005,-0.9017,-0.9033,-0.905,-0.9055,-0.9085,-0.9095,-0.911,-0.9121,-0.9141,-0.9156,-0.9174,-0.9187,-0.9203,-0.9206,-0.9206,-0.9199,-0.919,-0.9194,-0.9227,-0.9206,-0.9207,-0.9207,-0.9207,-0.9207,-0.8935,-0.8941,-0.8964,-0.898,-0.8996,-0.9012,-0.9019,-0.9038,-0.9052,-0.9072,-0.9086,-0.91,-0.912,-0.9146,-0.9158,-0.9168,-0.9176,-0.9175,-0.9175,-0.9174,-0.9171,-0.9189,-0.9172,-0.9172,-0.9172,-0.9172,-0.9172,0,-0.8908,-0.8925,-0.894,-0.8964,-0.8976,-0.8992,-0.9011,-0.902,-0.9032,-0.905,-0.9064,-0.9081,-0.9096,-0.9118,-0.9134,-0.9138,-0.9145,-0.9141,-0.9141,-0.9143,-0.9164,-0.9163,-0.9135,-0.9135,-0.9135,-0.9135,-0.9135,-0.9135,-0.8896,-0.8907,-0.8922,-0.8941,-0.8957,-0.8972,-0.8982,-0.8996,-0.901,-0.9029,-0.9042,-0.9057,-0.9076,-0.9094,-0.9108,-0.9114,-0.9118,-0.9112,-0.912,-0.9138,-0.9142,-0.9145,-0.9144,-0.9113,-0.9112,-0.9098,-0.9098,-0.9098]}]]